Regional Weather Roundup
Issued by NWS Charleston, WV

Home | Current Version | Previous Version | Text Only | Print | Product List | Glossary Off
Versions: 1 2 3 4 5 6 7 8 9 10 11 12 13 14 15 16 17 18 19 20 21 22 23 24 25 26 27 28 29 30 31 32 33 34 35 36 37 38 39 40 41 42 43 44 45 46 47 48 49 50

000
ASUS41 KRLX 311710
RWRRLX
West Virginia Regional Weather Roundup
National Weather Service Charleston WV
100 PM EDT FRI JUL 31 2015

Note: "fair" indicates few or no clouds below 12,000 feet with no
significant weather and/or obstructions to visibility.

WVZ003-311800-
Northern Panhandle of West Virginia

CITY           SKY/WX    TMP DP  RH WIND       PRES   REMARKS
WHEELING       MOSUNNY   84  57  39 W8G18     29.99F
$$

WVZ009-311800-
Northwest West Virginia

CITY           SKY/WX    TMP DP  RH WIND       PRES   REMARKS
PARKERSBURG    MOSUNNY   85  58  39 SW8       30.04F
$$

WVZ006-311800-
Western West Virginia

CITY           SKY/WX    TMP DP  RH WIND       PRES   REMARKS
HUNTINGTON     MOSUNNY   84  59  42 VRB5      30.05F
$$

WVZ015-311800-
West Central West Virginia

CITY           SKY/WX    TMP DP  RH WIND       PRES   REMARKS
CHARLESTON     MOSUNNY   82  57  42 VRB5      30.05F
$$

WVZ022-031-311800-
North Central West Virginia

CITY           SKY/WX    TMP DP  RH WIND       PRES   REMARKS
CLARKSBURG     MOSUNNY   81  58  45 W10       30.03F
MORGANTOWN     MOSUNNY   84  57  39 VRB6      30.03F
$$

WVZ025-035-042-045-311800-
Southern West Virginia

CITY           SKY/WX    TMP DP  RH WIND       PRES   REMARKS
BECKLEY        PTSUNNY   76  55  48 NW3       30.12F
LOGAN            N/A     79  57  47 CALM      30.06S
BLUEFIELD      SUNNY     78  52  40 NW9       30.15F
LEWISBURG      SUNNY     78  50  37 W5        30.10F
$$

WVZ047-311800-
Northern Mountains of West Virginia

CITY           SKY/WX    TMP DP  RH WIND       PRES   REMARKS
ELKINS         MOSUNNY   78  55  44 VRB6      30.07F
$$

WVZ052-311800-
Eastern Panhandle of West Virginia

CITY           SKY/WX    TMP DP  RH WIND       PRES   REMARKS
MARTINSBURG    MOSUNNY   83  55  38 W10       29.96F
PETERSBURG     PTSUNNY  N/A N/A N/A CALM      30.00F
$$



USA.gov is the U.S. government's official web portal to all federal, state and local government web resources and services.